Location: Grand Rapids
(42.9630°N, 85.6680°W)
Time: 15:05:04
(UTC-04:00)

Envisat - Pass Details

Date: 18 April 2024
Orbit: 762 x 764 km, 98.3° (Epoch: 20 May)

Event Time Altitude Azimuth Distance (km) Brightness Sun altitude
Rises 04:33:43 0° 20° (NNE) 3,237 7.3 -23.3°
Reaches altitude 10° 04:36:09 10° 27° (NNE) 2,306 6.4 -22.9°
Maximum altitude 04:40:58 42° 98° (E) 1,073 4.0 -22.3°
Enters shadow 04:44:23 18° 162° (SSE) 1,801 4.7 -21.8°
